Location: Barlest
(43.1500°N, 0.1000°W)
Time: 14:02:54
(UTC+00:00)

Daily predictions for brighter satellites

Satellite Brightness Start Highest point End
(mag) Time Altitude Azimuth Time Altitude Azimuth Time Altitude Azimuth
SPOT 1/Viking Rocket 4.4 19:53:25 10° S 19:58:25 51° W 20:03:26 10° NNW
Resurs 01 Rocket 1.7 19:54:30 10° SSE 19:58:55 87° WSW 20:03:22 10° NNW
Tsikada Rocket 4.0 19:53:37 10° S 19:59:48 75° E 20:06:05 10° N
BREEZE-M DEB (TANK) 2.8 20:00:02 10° WSW 20:02:30 86° SSE 20:09:09 10° ENE
Cosmos 1743 2.6 19:59:20 10° N 20:02:56 65° E 20:06:31 10° SSE
Okean O Rocket 1.7 19:58:58 10° SSE 20:03:24 87° ENE 20:07:51 10° NNW
Cosmos 1766 Rocket 3.6 19:59:10 10° N 20:03:39 72° E 20:08:05 10° SSE
Cosmos 1110 Rocket 4.5 20:00:21 10° N 20:05:31 49° ENE 20:10:37 10° SE
FALCON 9 R/B 3.1 20:02:10 10° WSW 20:05:56 36° S 20:15:38 10° ESE
CARTOSAT-1 3.8 20:05:57 10° S 20:10:11 71° WSW 20:14:28 10° NNW
Lacrosse 5 4.5 20:11:36 10° W 20:13:19 12° WSW 20:15:03 10° SW
Cosmos 2292 Rocket 4.2 20:09:15 10° S 20:15:24 84° W 20:20:05 10° N
CZ-4B R/B 4.0 20:10:59 10° S 20:16:08 50° W 20:21:17 10° NNW
Lacrosse 5 rocket 4.3 20:15:33 10° NW 20:17:35 13° N 20:19:36 10° NNE
ATLAS 3B R/B 4.4 20:11:23 10° NW 20:18:09 33° WSW 20:24:46 10° S
Lacrosse 4 Rocket 3.7 20:17:10 10° NNE 20:18:57 12° NE 20:20:46 10° ENE
CZ-4 R/B 3.8 20:18:39 10° SW 20:21:33 21° W 20:24:31 10° NW
USA 306 2.6 20:21:01 10° NW 20:24:47 79° SW 20:28:14 13° SE
Meteor 1-27 Rocket 4.4 20:20:19 10° SSE 20:25:10 33° E 20:30:04 10° NNE
Aureole 3 Rocket 4.1 20:20:58 10° NNW 20:25:40 65° W 20:32:15 10° S
Cosmos 1408 Rocket 4.2 20:22:34 10° N 20:26:46 39° ENE 20:30:33 12° SE
Cosmos 1340 Rocket 4.1 20:25:27 12° SE 20:28:19 23° E 20:31:30 10° NE
USA 186 4.3 20:26:43 10° SW 20:29:11 20° W 20:31:42 10° NW
CZ-4C R/B 3.3 20:26:10 10° NNE 20:30:05 69° ESE 20:34:08 10° S
SPOT 5 2.8 20:30:01 11° SSE 20:34:21 62° ENE 20:38:40 10° N
Cosmos 1151 Rocket 4.4 20:32:38 13° SE 20:35:10 21° E 20:38:26 10° NE
Ariane Rocket 3.9 20:34:06 13° SE 20:38:01 33° ENE 20:42:33 10° N
Cosmos 1833 Rocket 4.5 20:43:40 11° ESE 20:44:40 12° E 20:46:34 10° ENE
Cosmos 1726 1.6 20:42:30 10° N 20:45:38 81° W 20:48:11 14° S
SPOT 3 Rocket 4.4 20:42:08 15° SE 20:45:53 36° ENE 20:50:32 10° N
Cosmos 1818 4.2 20:42:28 10° S 20:47:17 33° ESE 20:52:09 10° NE
IRS-1C Rocket 4.1 20:43:34 12° SSE 20:48:23 78° ENE 20:53:39 10° N
Nadezhda 4 Rocket 4.3 20:46:07 12° SSE 20:51:35 46° E 20:57:31 10° NNE
Cosmos 1603 4.0 20:46:29 10° SSW 20:52:08 73° WNW 20:57:53 10° NNE
Okean-O 3.2 20:48:07 10° S 20:52:25 54° W 20:56:45 10° NNW
Cosmos 2279 Rocket 4.0 20:46:33 10° N 20:52:46 89° WSW 20:58:55 10° S
USA 245 2.8 20:52:10 28° ESE 20:52:52 36° ENE 20:55:12 10° N
ERS-1 Rocket 3.1 20:49:15 16° SSE 20:53:14 62° ENE 20:58:12 10° N
Okean 1 3.1 20:49:40 10° S 20:53:27 71° E 20:57:20 10° NNE
Cosmos 2369 Rocket 3.8 20:48:51 10° NW 20:53:38 30° WSW 20:58:24 10° SSW
Cosmos 614 Rocket 4.3 20:53:02 10° S 20:57:53 45° ESE 21:02:50 10° NNE
Cosmos 1452 Rocket 4.0 20:54:24 10° NNW 20:59:32 56° WSW 21:04:13 12° S
Cosmos 1500 Rocket 3.5 20:58:39 10° N 21:02:58 71° E 21:05:46 21° SSE
Cosmos 1975 4.3 21:01:38 10° NNE 21:04:45 22° ENE 21:06:07 19° ESE
Meteor 1-19 Rocket 4.2 21:05:38 10° S 21:11:29 82° E 21:17:12 10° NNE
USA 59 Rocket 0.5 21:07:48 10° NNW 21:11:48 57° NE 21:15:04 22° SE
Cosmos 1805 Rocket 3.5 21:09:55 10° N 21:14:21 79° E 21:16:58 24° SSE
NOSS 2-1 (E) 4.0 21:10:37 10° NNW 21:14:37 60° NE 21:17:49 23° SE
DELTA 2 R/B (1) 4.0 21:10:06 10° SW 21:15:18 40° SSE 21:20:14 11° E
Sich 1 3.0 21:10:59 10° N 21:15:23 81° E 21:17:57 24° SSE
ISS -1.4 21:15:49 10° W 21:17:37 14° SW 21:18:42 12° SSW
Cosmos 1536 3.5 21:14:21 10° NNW 21:18:08 49° W 21:21:02 16° SSW
Cosmos 1633 Rocket 4.5 21:14:39 10° NNE 21:18:16 24° ENE 21:19:46 20° ESE
Terra 1.8 21:22:25 23° S 21:25:24 77° WSW 21:30:08 10° NNW
GEOS 3 Rocket 4.2 21:20:54 10° NE 21:25:30 32° ESE 21:27:03 27° SSE
Spot 1 4.2 21:22:26 10° NNE 21:26:29 51° E 21:28:15 31° SSE
NOSS 2-1 (D) 3.7 21:23:35 10° NW 21:27:38 81° NE 21:30:22 29° SE
Meteor 1-11 Rocket 4.3 21:22:11 10° NNW 21:27:46 57° W 21:32:32 15° S
ARGOS Delta rocket 4.4 21:25:42 17° S 21:29:23 55° W 21:34:01 10° NNW
Cosmos 2026 Rocket 4.3 21:26:45 25° SSE 21:30:14 49° E 21:36:11 10° NNE
Cosmos 1992 Rocket 4.1 21:29:37 10° NNW 21:34:48 61° ENE 21:37:12 31° SE
Cosmos 1302 Rocket 4.2 21:32:49 10° NNW 21:37:58 63° WSW 21:40:49 26° S
Landsat 4 4.4 21:41:10 28° SSW 21:42:31 43° W 21:45:51 10° NNW
Cosmos 1697 Rocket 4.0 21:39:21 10° N 21:44:14 29° NE 21:47:10 19° E
Cosmos 1607 4.5 21:42:38 29° SSE 21:45:05 39° ESE 21:51:02 10° NE
NOSS 3-3 (A) 3.6 21:40:31 10° SSW 21:45:52 83° SE 21:52:04 10° NE
MOS 1 Rocket 3.8 21:45:42 27° S 21:48:34 68° W 21:53:55 10° NNW
USA 281 3.3 21:44:56 28° SE 21:48:35 69° ENE 21:55:09 10° NNW
Cosmos 1340 3.6 21:47:23 10° NNW 21:50:32 36° W 21:51:36 28° SW
Orbus 7S? 3.8 21:44:45 10° SSW 21:51:34 57° SE 21:54:58 10° ENE
Spot 2 Rocket 4.1 21:50:43 23° SSW 21:53:34 48° W 21:58:28 10° NNW
Cosmos 1980 Rocket 4.2 21:49:40 10° N 21:53:38 19° NE 21:57:19 11° E
Cosmos 1140 Rocket 4.3 21:55:40 31° ESE 21:56:14 32° E 22:00:50 10° NE
Lacrosse 5 rocket 4.1 21:54:56 10° NNW 21:57:28 15° NNE 21:59:56 10° NE
Lacrosse 4 Rocket 1.3 21:53:41 10° NNW 21:57:48 86° WSW 21:58:43 54° SSE
Meteor 2-4 Rocket 3.8 21:58:17 25° SSW 22:01:56 84° W 22:07:54 10° N
Cosmos 1066 Rocket 4.4 22:00:45 37° SSE 22:02:52 57° E 22:08:36 10° NNE
H-2A R/B 4.2 22:02:00 19° E 22:02:55 21° ENE 22:06:06 10° NNE
NOSS 2-1 (C) 4.3 22:00:48 10° NW 22:04:52 50° WSW 22:06:31 36° S
Cosmos 1626 1.7 22:06:08 81° NW 22:06:08 81° NW 22:09:17 10° N
IRIDIUM 104 4.3 22:02:49 10° N 22:08:04 86° W 22:10:02 40° S
Cosmos 1553 Rocket 4.4 22:02:11 10° N 22:08:04 49° ENE 22:10:14 35° SE
BREEZE-M DEB (TANK) 4.2 22:06:53 10° NW 22:08:38 21° N 22:10:18 13° ENE
BREEZE-M DEB (TANK) 3.4 22:11:16 27° SSW 22:13:32 64° SE 22:26:04 10° ENE
Ariane Rocket 4.4 22:14:14 19° SW 22:16:54 31° W 22:21:24 10° NW
IRIDIUM 114 4.4 22:11:58 10° N 22:17:11 71° W 22:19:10 38° SSW
NOSS 3-3 (C) 4.2 22:13:43 10° SW 22:19:01 63° NW 22:25:18 10° NNE
ARIANE 5 R/B 3.0 22:18:32 44° E 22:19:08 48° ENE 22:23:17 10° N
Cosmos 1674 3.4 22:21:29 39° ENE 22:21:29 39° ENE 22:24:07 10° NNE
CZ-2C R/B 3.6 22:16:54 10° NNE 22:21:20 59° E 22:21:42 57° SE
Cosmos 2285 Rocket 4.3 22:21:35 40° SE 22:23:06 47° ESE 22:29:09 10° NNE
MetOp-A 4.3 22:22:23 38° SSW 22:23:48 52° W 22:28:41 10° NNW
Cosmos 1092 Rocket 4.3 22:21:59 25° SSW 22:25:43 64° W 22:32:02 10° N
Cosmos 1833 Rocket 2.6 22:25:16 36° SSW 22:27:39 87° ESE 22:33:18 10° NNE
Cosmos 1328 Rocket 4.1 22:27:52 38° SW 22:29:10 53° W 22:33:24 10° N
Cosmos 1766 3.1 22:26:58 10° N 22:30:39 84° NW 22:30:39 84° NW
Cosmos 407 Rocket 3.8 22:34:46 47° ESE 22:35:09 48° ESE 22:40:11 10° NNE
Cosmos 724 4.2 22:34:15 42° SSW 22:36:18 74° ESE 22:42:09 10° NE
Cosmos 1656 4.2 22:32:04 10° NW 22:37:17 46° WSW 22:38:44 38° SSW
Cosmos 1515 Rocket 3.3 22:38:30 77° S 22:38:49 87° E 22:43:09 10° N
Cosmos 2082 Rocket 3.1 22:38:49 31° ESE 22:38:50 31° ESE 22:43:47 10° NE
Cosmos 2266 Rocket 4.4 22:38:38 40° SE 22:40:05 48° E 22:46:03 10° NNE
Cosmos 1975 4.3 22:37:17 10° NNW 22:40:35 26° W 22:41:18 25° WSW
BREEZE-M DEB (TANK) 3.3 22:42:14 53° ENE 22:42:14 53° ENE 22:46:36 10° ENE
Cosmos 1470 3.1 22:40:32 10° N 22:43:42 54° NE 22:43:42 54° NE
Cosmos 44 Rocket 3.1 22:39:22 10° NNW 22:44:17 83° NE 22:44:56 67° SE
Cosmos 2360 4.3 22:41:59 10° NNW 22:47:40 67° WSW 22:48:58 51° SSW
Cosmos 1470 Rocket 3.9 22:47:52 10° NNW 22:52:12 53° W 22:52:36 51° WSW
SL-8 R/B 3.9 22:48:00 10° WNW 22:52:45 69° NNE 22:54:05 45° E
Cosmos 1869 Rocket 4.1 22:49:34 10° N 22:53:48 45° ENE 22:53:51 45° E
Cosmos 1633 Rocket 4.4 22:52:08 10° NNW 22:55:59 30° W 22:56:46 28° WSW
Cosmos 1655 Rocket 4.5 22:57:28 41° SE 22:58:52 47° E 23:04:56 10° NNE
Cosmos 2251 Rocket 3.4 22:59:14 65° SSE 22:59:48 72° ESE 23:05:05 10° NNE
DELTA 2 R/B (1) 3.5 22:55:49 10° WSW 23:01:00 60° SSW 23:01:00 60° SSW
USA 59 Rocket 2.2 22:58:06 10° WNW 23:01:32 20° WSW 23:01:37 20° WSW
GEOS 3 Rocket 4.5 22:58:40 10° NNE 23:03:37 47° NW 23:08:05 12° WSW
PSLV R/B 4.3 23:02:53 10° N 23:06:50 54° WNW 23:07:00 54° W
Cosmos 1908 3.8 23:03:49 10° N 23:06:34 50° N 23:06:34 50° N
Meteor 1-22 Rocket 4.4 23:03:06 10° N 23:08:22 54° ENE 23:09:19 48° ESE
Cosmos 1400 Rocket 4.0 23:15:48 34° ENE 23:15:48 34° ENE 23:18:39 10° NNE
Cosmos 1933 Rocket 3.9 23:12:54 10° NNW 23:17:09 56° W 23:17:09 56° W
Cosmos 1417 Rocket 4.5 23:11:14 10° N 23:17:32 77° W 23:19:03 53° SSW
GP-B 4.0 23:14:45 10° NNE 23:18:36 37° ENE 23:18:36 37° ENE
Meteor 1-15 Rocket 4.2 23:15:42 10° N 23:21:19 71° ENE 23:22:13 60° SE
Cosmos 1707 3.9 23:26:18 35° WNW 23:26:18 35° WNW 23:29:16 10° N
Cosmos 1697 Rocket 3.1 23:23:02 10° NW 23:28:21 45° WSW 23:28:53 43° WSW
ALOS 2 2.5 23:28:50 83° NNE 23:28:50 83° NNE 23:33:06 10° NNW
In-Cosmos 22 4.2 23:31:11 57° SSW 23:32:20 76° W 23:38:04 10° N
USA 267 3.7 23:29:52 10° ENE 23:35:51 39° SE 23:35:51 39° SE
Lacrosse 5 rocket 2.2 23:32:44 10° NW 23:36:45 44° NE 23:37:07 42° NE
Cosmos 1300 3.8 23:33:43 10° N 23:36:14 36° NE 23:36:14 36° NE
PSLV R/B 3.9 23:32:53 10° NNE 23:36:50 56° ENE 23:36:50 56° ENE
Cosmos 1441 Rocket 4.2 23:33:49 10° NNW 23:36:17 40° NW 23:36:17 40° NW
H-2A R/B 3.5 23:37:59 36° W 23:37:59 36° W 23:41:35 10° NNW
Cosmos 1980 Rocket 2.0 23:32:36 10° NNW 23:38:19 80° WSW 23:39:03 67° S
Cosmos 1953 4.4 23:42:39 10° NNE 23:45:22 18° ENE 23:45:27 18° ENE
S3M 4.4 23:40:39 10° NNW 23:46:52 55° W 23:48:21 45° SW
SL-14 R/B 3.9 23:48:27 52° NNE 23:48:27 52° NNE 23:51:25 10° N
Cosmos 1707 Rocket 3.7 23:49:21 71° NE 23:49:21 71° NE 23:53:30 10° NNE
Celestis-02/Orion 38 4.4 23:52:30 72° SSW 23:52:53 76° WSW 23:58:12 10° NNW
Cosmos 841 Rocket 4.5 23:49:31 10° N 23:54:28 40° ENE 23:55:58 33° E
